Regional Weather Roundup
Issued by NWS Cleveland, OH

Home | Current Version | Previous Version | Graphics & Text | Print | Product List | Glossary On
Versions: 1 2 3 4 5 6 7 8 9 10 11 12 13 14 15 16 17 18 19 20 21 22 23 24 25 26 27 28 29 30 31 32 33 34 35 36 37 38 39 40 41 42 43 44 45 46 47 48 49 50
000
ASUS41 KCLE 130100
RWRCLE
OHIO REGIONAL WEATHER ROUNDUP
NATIONAL WEATHER SERVICE WILMINGTON, OH
900 PM EDT SAT JUL 12 2014

NOTE: "FAIR" INDICATES FEW OR NO CLOUDS BELOW 12,000 FEET WITH NO
SIGNIFICANT WEATHER AND/OR OBSTRUCTIONS TO VISIBILITY.

OHZ001>008-015>018-024>027-034-035-043-044-130200-
   NORTHWEST OHIO

CITY           SKY/WX    TMP DP  RH WIND       PRES   REMARKS
DEFIANCE       MOCLDY    78  66  66 SW9       30.01F
FINDLAY        PTCLDY    79  68  69 SW9       30.02F
TOLEDO EXPRESS PTCLDY    77  67  71 SW7       30.00F
TOLEDO METCALF MOCLDY    78  68  71 SW10      30.00F
LIMA           MOCLDY    79  68  69 SW8       30.04F
$$

OHZ009>014-019>023-028>033-038-089-130200-
   NORTHEAST OHIO

CITY           SKY/WX    TMP DP  RH WIND       PRES   REMARKS
CLE-HOPKINS    CLOUDY    79  61  53 S9        30.05S
CLE-LAKEFRONT  MOCLDY    82  60  47 S10       30.01S
CUY CO. ARPT   NOT AVBL
LORAIN-ELYRIA  MOCLDY    81  63  54 S8        30.04F
ASHTABULA      MOCLDY    76  63  64 S6        30.04F
AKRON-CANTON   MOCLDY    78  60  53 SW9       30.07R
WOOSTER        NOT AVBL
MANSFIELD      MOCLDY    78  64  61 S10       30.07F
YOUNGSTOWN     MOCLDY    77  64  64 S5        30.06F
$$

OHZ042-051>053-060>062-070>072-077>081-130200-
  SOUTHWEST OHIO

CITY           SKY/WX    TMP DP  RH WIND       PRES   REMARKS
CINC-COVINGTON MOCLDY    79  67  66 SW5       30.06F
CINC-LUNKEN    MOCLDY    77  68  73 CALM      30.05F
HAMILTON       MOCLDY    79  69  71 CALM      30.05F
DAYTON         NOT AVBL
WRIGHT-PAT AFB NOT AVBL
DAYTON GENERAL MOCLDY    79  67  66 SW5       30.05F
WILMINGTON     MOCLDY    76  66  71 S5        30.07F
$$

OHZ036-037-039>041-045>050-054>059-063>069-073>076-082>088-130200-
  CENTRAL AND SOUTHEAST OHIO

CITY           SKY/WX    TMP DP  RH WIND       PRES   REMARKS
COLUMBUS       MOCLDY    83  62  49 SW5       30.05F
OSU AIRPORT    PTCLDY    78  65  63 S6        30.06F
BOLTON FIELD   NOT AVBL
RICKENBACK AFB NOT AVBL
NEWARK         MOCLDY    77  66  68 SW3       30.07R
MARION         MOCLDY    79  65  62 SW9       30.05F HAZE
LANCASTER      MOCLDY    77  66  68 CALM      30.07F
ZANESVILLE     CLOUDY    77  65  66 CALM      30.07R
NEW PHILLY     MOCLDY    77  64  64 CALM      30.07S
$$



USA.gov is the U.S. government's official web portal to all federal, state and local government web resources and services.